sat.trackr.live / text

‹ back to catalog

STARLINK-4153

NORAD 53037 · 2022-076BD

PAYLOAD ACTIVE UNKNOWN

§ Identity

Operator
Country
US
Launch date
2022-07-07
Launch site
AFETR
Launch vehicle
Mass (kg)
RCS (m²)

Purposes: comms

External: N2YO · Heavens-Above · Gunter

§ Orbital elements

Epoch: 2026-09-20T01:35:08.275200Z

Period
93.79 min
Inclination
53.1596°
Eccentricity
0.0001189
Mean motion
15.35405444 rev/d
Perigee alt
458.9 km
Apogee alt
460.5 km
Semi-major
6,837.9 km
B*
9.5793e-5
RAAN
276.4097°
Arg perigee
80.9031°
Mean anomaly
279.2106°
Rev number
23,253

§ Raw data

STARLINK-41531 53037U 22076BD  26263.06606800  .00002963  00000+0  95793-4 0  99962 53037  53.1596 276.4097 0001189  80.9031 279.2106 15.35405444232531

JSON: /api/v1/satellites/53037 · /tle

For live sub-satellite position, see the globe view (requires WebGL).

§ Visibility from observer

Set your observer location to see the next 7 days of passes ≥ 10°. The values pass through the URL so the page stays shareable.

No JS? Fill the form by hand. The geolocation button needs JavaScript.